Faa'a International Airport

Jump to: basic info | weather | frequencies | runways | comments

Related pages: nearby airports | nearby navaids | notams | map

Basic information (top)

Codes: PPT NTAA
Location: lon -17.553699, lat -149.606995, elev 5 ft / 2 m msl
Status: medium_airport
Scheduled airline service: yes
Links: Wikipedia Mobile

Weather (top)

Current conditions (rec'd 2014/09/22 18:00Z):

NTAA 221800Z 07010KT 9999 VCSH FEW020 BKN310 28/22 Q1015 NOSIG

Airport forecast (rec'd 2014/09/22 18:00Z):

TAF NTAA 221700Z 2218/2324 04015KT 9999 FEW035 SCT060 
      BECMG 2304/2305 06006KT

Frequencies (top)

Verify before use: may be inaccurate or out of date.

APP: 118.1 MHz (APP)
ATIS: 128.8 MHz (ATIS)
GND: 121.9 MHz (GND)
TWR: 118.1 MHz (TWR)

Runways (top)

04/22: 11,360 x 148 ft (3,463 x 45 m) — paved — lighted — threshold 04 displaced 1,120 ft (341 m) — threshold 22 displaced 390 ft (119 m)

Latest comments (top)

Fa'a'a international Airport: a great hot country [read]

More... (top)

See also NOTAMs and nearby airports and navaids, or visit the Faa'a International Airport page at the main OurAirports website..